Powrót do katalogu

SL-12 R/B(2)

AktywnyGEO
NORAD 16732·ROCKET BODY·🇷🇺 Russia

Wystrzelony May 24, 1986 z Baikonur Cosmodrome

Loading…

TLE

ŚwieżeSource: Space-Track

Epoka: Sep 14, 2026, 14:15 UTC

1 16732U 86038D   26257.59390775 -.00000329  00000-0  00000-0 0  9996
2 16732   8.5706 313.1485 0020167 186.1871 162.7280  1.01375345125441

Śledź SL-12 R/B(2) w czasie rzeczywistym z AllMySat

Download on the App Store